This demonstration page uses our WeatherBlox Daily Observations layout. Learn more.

Left ArrowRight Arrow

39.01783, -85.05884

Hourly Observations for August 7, 2021

Temp ( °F °C ) Dew Point ( °F °C ) Humidity (%) Winds ( mph kmh ) Pressure ( in mb ) Visibility ( mi km ) Precip ( " mm )
12:52 am 00:52 Mostly Cloudy 72 22.2 63 17.2 73 73 SSW 5 7 30.05 1018 10 16 0.00 0.00
1:52 am 01:52 Mostly Cloudy 70 21.1 63 17.2 79 79 SSW 3 6 30.05 1018 10 16 0.00 0.00
2:52 am 02:52 Mostly Cloudy 71 21.7 63 17.2 76 76 SW 5 7 30.02 1017 10 16 0.00 0.00
3:52 am 03:52 Mostly Cloudy 68 20 63 17.2 84 84 SSW 3 6 30.03 1017 8 13 0.00 0.00
4:52 am 04:52 Mostly Cloudy 69 20.6 63 17.2 81 81 SW 3 6 30.03 1017 10 16 0.00 0.00
5:52 am 05:52 Partly Cloudy 69 20.6 64 17.8 84 84 Calm 30.03 1017 8 13 0.00 0.00
6:52 am 06:52 Mostly Cloudy 68 20 63 17.2 84 84 Calm 30.03 1017 7 11 0.00 0.00
7:52 am 07:52 Mostly Cloudy 69 20.6 64 17.8 84 84 Calm 30.05 1018 7 11 0.00 0.00
8:52 am 08:52 Mostly Cloudy 72 22.2 63 17.2 73 73 SW 5 7 30.05 1018 9 14 0.00 0.00
9:52 am 09:52 Mostly Cloudy 77 25 64 17.8 64 64 WSW 7 11 30.06 1018 10 16 0.00 0.00
10:52 am 10:52 Cloudy 77 25 64 17.8 64 64 WSW 7 11 30.06 1018 10 16 0.00 0.00
11:52 am 11:52 Mostly Cloudy 79 26.1 63 17.2 58 58 W 7 11 30.06 1018 10 16 0.00 0.00
12:52 pm 12:52 Partly Cloudy 83 28.3 64 17.8 53 53 SSW 9 15 30.05 1018 10 16 0.00 0.00
1:52 pm 13:52 Partly Cloudy 84 28.9 61 16.1 46 46 Calm 30.04 1017 10 16 0.00 0.00
2:52 pm 14:52 Mostly Sunny 85 29.4 62 16.7 46 46 SW 6 9 30.02 1017 10 16 0.00 0.00
3:52 pm 15:52 Mostly Sunny 86 30 62 16.7 45 45 SW 7 11 30.01 1016 10 16 0.00 0.00
4:52 pm 16:52 Partly Cloudy 86 30 61 16.1 43 43 VRB 5 7 29.99 1016 10 16 0.00 0.00
5:52 pm 17:52 Mostly Sunny 85 29.4 60 15.6 43 43 S 7 11 29.98 1015 10 16 0.00 0.00
6:52 pm 18:52 Mostly Cloudy 82 27.8 59 15 46 46 SSW 5 7 30.00 1016 10 16 0.00 0.00
7:52 pm 19:52 Cloudy 80 26.7 59 15 49 49 SSW 3 6 30.00 1016 10 16 0.00 0.00
8:52 pm 20:52 Mostly Cloudy 80 26.7 59 15 49 49 WSW 3 6 30.00 1016 10 16 0.00 0.00
9:52 pm 21:52 Mostly Cloudy 74 23.3 62 16.7 67 67 WSW 3 6 30.02 1017 10 16 0.00 0.00
10:52 pm 22:52 Mostly Cloudy 78 25.6 61 16.1 56 56 Calm 30.02 1017 10 16 0.00 0.00
11:52 pm 23:52 Partly Cloudy 73 22.8 62 16.7 69 69 SSW 6 9 30.01 1016 10 16 0.00 0.00

Powered by AerisWeather